Regional Weather Roundup
Issued by NWS

Home | Current Version | Previous Version | Text Only | Print | Product List | Glossary Off
Versions: 1 2 3 4 5 6 7 8 9 10 11 12 13 14 15 16 17 18 19 20 21 22 23 24 25 26 27 28 29 30 31 32 33 34 35 36 37 38 39 40 41 42 43 44 45 46 47 48 49 50

000
ASUS43 KMKX 182300
RWRWI

WISCONSIN REGIONAL WEATHER ROUNDUP
NATIONAL WEATHER SERVICE MILWAUKEE/SULLIVAN WI
500 PM CST THU DEC 18 2014

NOTE: "FAIR" INDICATES FEW OR NO CLOUDS BELOW 12,000 FEET WITH NO
SIGNIFICANT WEATHER AND/OR OBSTRUCTIONS TO VISIBILITY.

WIZ001-002-006>008-014>016-023>028-190000-
NORTHWEST WISCONSIN

CITY           SKY/WX    TMP DP  RH WIND       PRES   REMARKS
SUPERIOR ARPT  CLOUDY    27  20  75 CALM      30.27S
ASHLAND        CLOUDY    24  19  81 SW3       30.28S
HAYWARD        CLOUDY    23  18  81 CALM      30.24S
SIREN          CLOUDY    23  19  87 CALM      30.26S
CUMBERLAND     CLOUDY    21  19  93 CALM      30.24R
RICE LAKE      CLOUDY    23  19  86 CALM      30.27R
CHETEK         CLOUDY    23  20  89 CALM      30.25S
LADYSMITH      CLOUDY    24  20  87 CALM      30.26S
EAU CLAIRE     CLOUDY    24  18  77 CALM      30.26R
MENOMONIE      CLOUDY    24  19  81 CALM      30.27R
NEW RICHMOND   CLOUDY    23  20  89 CALM      30.27R
OSCEOLA        CLOUDY    23  19  83 CALM      30.30R
$$

WIZ003>005-009-010-017-018-190000-
NORTH CENTRAL WISCONSIN

CITY           SKY/WX    TMP DP  RH WIND       PRES   REMARKS
MANITOWISH WTR CLEAR     19  16  90 CALM      30.21R
ARBOR VITAE    CLEAR     20  16  82 CALM      30.21R
WOODRUFF       CLEAR     20  16  82 CALM      30.21R
RHINELANDER    PTCLDY    22  15  75 NW5       30.20S WCI  16
EAGLE RIVER    PTCLDY    19  16  86 CALM      30.20S
LAND O LAKES   CLEAR     17  16  93 CALM      30.21S
PHILLIPS       CLOUDY    21  17  82 CALM      30.22S
TOMAHAWK       CLEAR     18  15  89 CALM      30.22S
MEDFORD        CLOUDY    22  18  85 CALM      30.21S
MERRILL        CLEAR     22  18  85 CALM      30.22S
$$

WIZ029-030-035-036-043>047-190000-
CENTRAL WISCONSIN

CITY           SKY/WX    TMP DP  RH WIND       PRES   REMARKS
WAUSAU         PTCLDY    24  17  74 NW5       30.21S WCI  18
MOSINEE        MOCLDY    25  21  86 N5        30.23S WCI  19
MARSHFIELD     CLOUDY    25  18  74 CALM      30.22S
STEVENS POINT  CLOUDY    24  18  79 CALM      30.24R
WAUPACA        CLEAR     26  19  74 NW3       30.24S
WAUTOMA        NOT AVBL
WISC RAPIDS    CLOUDY    26  18  71 N3        30.25R
CAMP DOUGLAS   NOT AVBL
$$

WIZ011>013-019>022-031-037>040-048>050-190000-
NORTHEAST WISCONSIN

CITY           SKY/WX    TMP DP  RH WIND       PRES   REMARKS
ANTIGO         CLEAR     21  16  81 CALM      30.20S
SHAWANO        CLEAR     27  19  71 CALM      30.24R
OCONTO         CLEAR     25  20  82 CALM      30.25R
STURGEON BAY   CLEAR     25  12  58 NE5       30.25S WCI  19
GREEN BAY      CLEAR     25  21  85 CALM      30.25R
MANITOWOC      NOT AVBL
APPLETON       PTCLDY    25  18  74 VRB6      30.24R WCI  18
CLINTONVILLE   CLEAR     28  19  69 CALM      30.23S
OSHKOSH        CLOUDY    27  19  72 N6        30.24R WCI  20
$$

WIZ032>034-041-042-053>061-190000-
SOUTHWEST WISCONSIN

CITY           SKY/WX    TMP DP  RH WIND       PRES   REMARKS
LA CROSSE      CLOUDY    26  18  71 CALM      30.28R
SPARTA         CLOUDY    25  19  80 CALM      30.27R
VIROQUA        CLOUDY    23  20  87 CALM      30.23S
BOSCOBEL       CLOUDY    27  17  66 CALM      30.27S
PRAIRIE DU CHI CLOUDY    27  16  65 CALM      30.26S
PLATTEVILLE    CLOUDY    26  20  77 CALM      30.25R
$$

WIZ056-057-062-063-064-067-068-190000-
SOUTH CENTRAL WISCONSIN

CITY           SKY/WX    TMP DP  RH WIND       PRES   REMARKS
REEDSBURG      CLOUDY    25  20  81 CALM      30.25R
BARABOO/DELLS  CLOUDY    26  20  80 CALM      30.24R
LONE ROCK      NOT AVBL
MINERAL POINT  CLOUDY    27  19  74 CALM      30.23R
MADISON        FLURRIES  26  21  81 NW3       30.24R
MIDDLETON      CLOUDY    27  21  77 NW6       30.24S WCI  21
WATERTOWN      CLOUDY    27  25  94 N6        30.23R WCI  20
MONROE         CLOUDY    27  21  80 CALM      30.23R
JANESVILLE     CLOUDY    28  23  80 CALM      30.23S
$$

WIZ051-052-058>065-066-070>072-190000-
SOUTHEAST WISCONSIN

CITY           SKY/WX    TMP DP  RH WIND       PRES   REMARKS
MILWAUKEE      CLOUDY    29  23  78 NW7       30.23S WCI  22
WAUKESHA       CLOUDY    27  25  93 NW5       30.23S FOG     WCI  21
MILWAUKEE/TIMM NOT AVBL
RACINE         CLOUDY    28  24  85 NW5       30.25R WCI  23
BURLINGTON     CLOUDY    25  23  91 NW5       30.23S WCI  20
KENOSHA        CLOUDY    27  24  89 NW6       30.23S WCI  20
FOND DU LAC    CLOUDY    27  19  72 N8        30.24R WCI  19
SHEBOYGAN      CLOUDY    28  21  75 N7        30.23S WCI  21
WEST BEND      CLOUDY    28  21  74 N6        30.22S WCI  22
JUNEAU         CLOUDY    26  22  86 N6        30.24R WCI  19
$$

LSZ147-162-190000-
LAKE SUPERIOR

STATION/POSITION TIME  TEMP    WIND        PRES    WAVE
                       AIR SEA DIR/SP/G            HT/PER
                 (UTC) (F)     (DEG/KT/KT) (MB)    (FT/S)
DEVILS ISLAND    2200   28     140/  5/  8 1026.1S
PORT WING        2200   27     110/  3/  6 1025.1S
SAXON HARBOR     2200   28      CALM  /  2 1025.1R
$$

LMZ867-665-643>646-190000-
LAKE MICHIGAN

STATION/POSITION TIME  TEMP    WIND        PRES    WAVE
                       AIR SEA DIR/SP/G            HT/PER
                 (UTC) (F)     (DEG/KT/KT) (MB)    (FT/S)
CHAMBERS ISLAND  2200   29     360/ 10/ 11 1024.0S
NORTHPORT PIER   2200   28      10/  8/ 12 1024.0S
SISTER BAY       2213             CALM       N/A
ALGOMA LAKESHORE 2214          340/  6/  8   N/A
KEWAUNEE LAKESHO 2200   26     350/  3/  5 1023.0R
SHEBOYGAN LAKESH 2200   28 34  320/  7/  8 1024.9R
PORT WASHINGTON  2200   29     330/  4/  7 1024.4S
MILWAUKEE LAKESH 2200   29     340/  7/ 10   N/A
KENOSHA   LAKESH 2200   28     300/  6/  8 1023.7R
$$

TC  - TEMPERATURE IN CELSIUS
VSB - VISIBILITY IN STATUTE MILES
WCI - WIND CHILL INDEX
HX  - HEAT INDEX




USA.gov is the U.S. government's official web portal to all federal, state and local government web resources and services.